Location: Ammerl�gen
(47.2167°N, 9.6000°E)
Time: 12:30:52
(UTC+00:00)

Cosmos 676 Rocket - Pass Details

Date: 29 July 2021
Orbit: 755 x 783 km, 74.0° (Epoch: 26 September)

Event Time Altitude Azimuth Distance (km) Brightness Sun altitude
Exits shadow 02:08:43 20° 194° (SSW) 1,757 5.3 -14.8°
Maximum altitude 02:12:29 79° 110° (ESE) 802 4.1 -14.4°
Drops below altitude 10° 02:17:50 10° 24° (NNE) 2,349 7.8 -13.8°
Sets 02:20:14 0° 24° (NNE) 3,280 8.8 -13.6°
